User: anonymous
Location: Caltech
(34.1382°N, 118.1253°W)
Time: 12:18:01
(UTC-07:00)
Language:

Cosmos 1508 Rocket - Orbit

View from above orbital plane
View from above orbital plane
View from above satellite
View from above satellite

Ground track
Ground track

The orbit data is extracted from the following two-line orbital elements,

1 14484U 83111B   14114.56540962  .00043310  00000-0  70813-3 0  5004
2 14484 082.8442 020.8835 0230860 105.6654 257.0726 15.27797598564366
Epoch (UTC): 24 April 2014 13:34:11
Eccentricity: 0.0230860
inclination: 82.8442°
perigee height: 324 km
apogee height: 641 km
right ascension of ascending node: 20.8835°
argument of perigee: 105.6654°
revolutions per day: 15.27797598
mean anomaly at epoch: 257.0726°
orbit number at epoch: 56436

The dashed part of the orbit path shows where the satellite is in the earth's shadow,  

DLR